When you browse on this site, cookies collect data to enhance your experience and personalize the content and advertising you see.
Visit our Privacy Policy to learn more. By continuing to use the site, you agree to this use of cookies and data.
  • In Österreich
  • Länderverzeichnis
  • Für 7 Tage
  • Wassertemperatur
  • Satellitenkarten
  • Wetterkarte
  • News
  • Widgets
  • user-avatar
    Anmelden

    Stündliche Wetter Summit

    Heute, 22 Juli, Montag

    Zeit Temperatur Niederschläge Wind Luftdruck Luftfeuchtigkeit
    00:00 +29°C° 0.1 mm 2 m/S 751 mmHg 67%
    01:00 +28°C° 0 mm 2 m/S 752 mmHg 70%
    02:00 +27°C° 0.2 mm 2 m/S 751 mmHg 70%
    03:00 +27°C° 0.2 mm 1 m/S 751 mmHg 70%
    04:00 +27°C° 0.2 mm 1 m/S 750 mmHg 70%
    05:00 +27°C° 0.1 mm 1 m/S 751 mmHg 68%
    06:00 +28°C° 0.1 mm 1 m/S 751 mmHg 65%
    07:00 +28°C° 0.1 mm 2 m/S 751 mmHg 63%
    08:00 +29°C° 0.1 mm 2 m/S 751 mmHg 58%
    09:00 +31°C° 0.1 mm 2 m/S 751 mmHg 52%
    10:00 +32°C° 0.1 mm 2 m/S 751 mmHg 46%
    11:00 +34°C° 0.3 mm 2 m/S 750 mmHg 48%
    12:00 +34°C° 0.3 mm 3 m/S 750 mmHg 49%
    13:00 +35°C° 0.3 mm 3 m/S 750 mmHg 51%
    14:00 +33°C° 1.7 mm 3 m/S 749 mmHg 57%
    15:00 +31°C° 1.7 mm 3 m/S 749 mmHg 64%
    16:00 +30°C° 1.7 mm 3 m/S 749 mmHg 71%
    17:00 +29°C° 0.9 mm 3 m/S 749 mmHg 73%
    18:00 +27°C° 0.9 mm 3 m/S 749 mmHg 76%
    19:00 +26°C° 0.9 mm 3 m/S 749 mmHg 79%
    20:00 +26°C° 0.4 mm 2 m/S 749 mmHg 79%
    21:00 +25°C° 0.4 mm 2 m/S 750 mmHg 80%
    22:00 +25°C° 0.4 mm 1 m/S 750 mmHg 81%
    23:00 +25°C° 0.7 mm 1 m/S 750 mmHg 81%

    Morgen, 23 Juli, Dienstag

    Zeit Temperatur Niederschläge Wind Luftdruck Luftfeuchtigkeit
    00:00 +25°C° 0.7 mm 1 m/S 749 mmHg 82%
    01:00 +25°C° 0.7 mm 2 m/S 749 mmHg 82%
    02:00 +25°C° 0.6 mm 1 m/S 749 mmHg 83%
    03:00 +25°C° 0.6 mm 1 m/S 749 mmHg 84%
    04:00 +24°C° 0.6 mm 1 m/S 748 mmHg 85%
    05:00 +24°C° 7.5 mm 2 m/S 749 mmHg 85%
    06:00 +22°C° 7.5 mm 3 m/S 749 mmHg 85%
    07:00 +21°C° 7.5 mm 5 m/S 749 mmHg 85%
    08:00 +21°C° 0.5 mm 4 m/S 749 mmHg 84%
    09:00 +21°C° 0.5 mm 3 m/S 750 mmHg 84%
    10:00 +21°C° 0.5 mm 3 m/S 750 mmHg 83%
    11:00 +23°C° 0.5 mm 2 m/S 750 mmHg 79%
    12:00 +24°C° 0.5 mm 1 m/S 751 mmHg 76%
    13:00 +25°C° 0.5 mm 1 m/S 751 mmHg 72%
    14:00 +25°C° 0.6 mm 1 m/S 751 mmHg 70%
    15:00 +26°C° 0.6 mm 1 m/S 751 mmHg 69%
    16:00 +26°C° 0.6 mm 1 m/S 751 mmHg 67%
    17:00 +25°C° 0.8 mm 1 m/S 751 mmHg 69%
    18:00 +25°C° 0.8 mm 1 m/S 751 mmHg 71%
    19:00 +24°C° 0.8 mm 1 m/S 751 mmHg 73%
    20:00 +24°C° 0.6 mm 1 m/S 752 mmHg 74%
    21:00 +23°C° 0.6 mm 1 m/S 752 mmHg 75%
    22:00 +23°C° 0.6 mm 1 m/S 752 mmHg 77%
    23:00 +23°C° 0.3 mm 1 m/S 752 mmHg 76%

    übermorgen, 24 Juli, Mittwoch

    Zeit Temperatur Niederschläge Wind Luftdruck Luftfeuchtigkeit
    00:00 +23°C° 0.3 mm 2 m/S 752 mmHg 75%
    01:00 +23°C° 0.3 mm 2 m/S 752 mmHg 74%
    02:00 +21°C° 0 mm 2 m/S 752 mmHg 75%
    03:00 +21°C° 0 mm 2 m/S 752 mmHg 77%
    04:00 +20°C° 0 mm 2 m/S 752 mmHg 78%
    05:00 +21°C° 0.1 mm 3 m/S 753 mmHg 77%
    06:00 +21°C° 0.1 mm 3 m/S 753 mmHg 75%
    07:00 +21°C° 0.1 mm 3 m/S 754 mmHg 74%
    08:00 +24°C° 0 mm 3 m/S 754 mmHg 64%
    09:00 +26°C° 0 mm 3 m/S 754 mmHg 55%
    10:00 +27°C° 0 mm 3 m/S 754 mmHg 45%
    11:00 +28°C° 0 mm 3 m/S 754 mmHg 41%
    12:00 +29°C° 0 mm 2 m/S 754 mmHg 37%
    13:00 +30°C° 0 mm 2 m/S 754 mmHg 33%
    14:00 +30°C° 0 mm 2 m/S 754 mmHg 34%
    15:00 +30°C° 0 mm 1 m/S 754 mmHg 34%
    16:00 +30°C° 0 mm 1 m/S 754 mmHg 34%
    17:00 +29°C° 0 mm 1 m/S 754 mmHg 39%
    18:00 +28°C° 0 mm 1 m/S 755 mmHg 44%
    19:00 +27°C° 0 mm 2 m/S 755 mmHg 48%
    20:00 +26°C° 0 mm 2 m/S 755 mmHg 51%
    21:00 +25°C° 0 mm 2 m/S 756 mmHg 54%
    22:00 +25°C° 0 mm 2 m/S 756 mmHg 57%
    23:00 +24°C° 0 mm 2 m/S 756 mmHg 57%

    25 Juli, Donnerstag

    Zeit Temperatur Niederschläge Wind Luftdruck Luftfeuchtigkeit
    00:00 +23°C° 0 mm 2 m/S 756 mmHg 58%
    01:00 +23°C° 0 mm 1 m/S 756 mmHg 59%
    02:00 +21°C° 0 mm 2 m/S 756 mmHg 59%
    03:00 +21°C° 0 mm 2 m/S 757 mmHg 59%
    04:00 +20°C° 0 mm 2 m/S 757 mmHg 60%
    05:00 +21°C° 0 mm 2 m/S 757 mmHg 58%
    06:00 +23°C° 0 mm 2 m/S 758 mmHg 57%
    07:00 +23°C° 0 mm 2 m/S 758 mmHg 56%
    08:00 +25°C° 0 mm 2 m/S 758 mmHg 49%
    09:00 +27°C° 0 mm 2 m/S 758 mmHg 42%
    10:00 +29°C° 0 mm 2 m/S 758 mmHg 36%
    11:00 +30°C° 0 mm 2 m/S 758 mmHg 33%
    12:00 +31°C° 0 mm 1 m/S 758 mmHg 30%
    13:00 +32°C° 0 mm 1 m/S 758 mmHg 27%
    14:00 +32°C° 0 mm 2 m/S 758 mmHg 29%
    15:00 +31°C° 0 mm 2 m/S 758 mmHg 31%
    16:00 +31°C° 0 mm 2 m/S 758 mmHg 32%
    17:00 +30°C° 0 mm 2 m/S 758 mmHg 37%
    18:00 +29°C° 0 mm 2 m/S 758 mmHg 42%
    19:00 +28°C° 0 mm 2 m/S 759 mmHg 47%
    20:00 +27°C° 0 mm 2 m/S 759 mmHg 50%
    21:00 +26°C° 0 mm 1 m/S 759 mmHg 53%
    22:00 +25°C° 0 mm 1 m/S 760 mmHg 56%
    23:00 +25°C° 0 mm 1 m/S 760 mmHg 59%

    26 Juli, Freitag

    Zeit Temperatur Niederschläge Wind Luftdruck Luftfeuchtigkeit
    00:00 +24°C° 0 mm 1 m/S 760 mmHg 61%
    01:00 +24°C° 0 mm 1 m/S 760 mmHg 64%
    02:00 +23°C° 0 mm 1 m/S 760 mmHg 64%
    03:00 +23°C° 0 mm 1 m/S 760 mmHg 65%
    04:00 +21°C° 0 mm 0 m/S 760 mmHg 66%
    05:00 +22°C° 0 mm 0 m/S 760 mmHg 63%
    06:00 +23°C° 0 mm 0 m/S 761 mmHg 60%
    07:00 +24°C° 0 mm 0 m/S 761 mmHg 57%
    08:00 +26°C° 0 mm 0 m/S 761 mmHg 51%
    09:00 +28°C° 0 mm 0 m/S 761 mmHg 45%
    10:00 +30°C° 0 mm 0 m/S 762 mmHg 39%
    11:00 +33°C° 0 mm 1 m/S 761 mmHg 37%
    12:00 +33°C° 0 mm 1 m/S 761 mmHg 35%
    13:00 +34°C° 0 mm 1 m/S 761 mmHg 33%
    14:00 +35°C° 0 mm 2 m/S 761 mmHg 34%
    15:00 +34°C° 0 mm 2 m/S 761 mmHg 36%
    16:00 +33°C° 0 mm 3 m/S 761 mmHg 37%
    17:00 +31°C° 0 mm 3 m/S 761 mmHg 42%
    18:00 +30°C° 0 mm 3 m/S 761 mmHg 47%
    19:00 +28°C° 0 mm 3 m/S 761 mmHg 51%
    20:00 +27°C° 0 mm 3 m/S 761 mmHg 52%
    21:00 +26°C° 0 mm 2 m/S 762 mmHg 53%
    22:00 +26°C° 0 mm 2 m/S 762 mmHg 54%
    23:00 +25°C° 0 mm 2 m/S 762 mmHg 55%

    27 Juli, Samstag

    Zeit Temperatur Niederschläge Wind Luftdruck Luftfeuchtigkeit
    00:00 +25°C° 0 mm 2 m/S 762 mmHg 56%
    01:00 +24°C° 0 mm 1 m/S 762 mmHg 57%
    02:00 +24°C° 0 mm 1 m/S 762 mmHg 58%
    03:00 +24°C° 0 mm 1 m/S 762 mmHg 60%
    04:00 +21°C° 0 mm 0 m/S 762 mmHg 62%
    05:00 +22°C° 0 mm 0 m/S 762 mmHg 60%
    06:00 +23°C° 0 mm 0 m/S 762 mmHg 59%
    07:00 +24°C° 0 mm 0 m/S 762 mmHg 58%
    08:00 +26°C° 0 mm 0 m/S 763 mmHg 52%
    09:00 +30°C° 0 mm 1 m/S 763 mmHg 47%
    10:00 +32°C° 0 mm 1 m/S 763 mmHg 42%
    11:00 +32°C° 0 mm 2 m/S 762 mmHg 40%
    12:00 +34°C° 0 mm 2 m/S 762 mmHg 38%
    13:00 +34°C° 0 mm 3 m/S 762 mmHg 36%
    14:00 +34°C° 0 mm 3 m/S 762 mmHg 36%
    15:00 +33°C° 0 mm 3 m/S 761 mmHg 37%
    16:00 +33°C° 0 mm 3 m/S 761 mmHg 38%
    17:00 +31°C° 0 mm 3 m/S 761 mmHg 41%
    18:00 +29°C° 0 mm 3 m/S 761 mmHg 44%
    19:00 +28°C° 0 mm 3 m/S 761 mmHg 47%
    20:00 +27°C° 0 mm 3 m/S 761 mmHg 49%
    21:00 +26°C° 0 mm 2 m/S 761 mmHg 51%
    22:00 +25°C° 0 mm 2 m/S 761 mmHg 53%
    23:00 +25°C° 0 mm 2 m/S 761 mmHg 54%
    Mehr zeigen